Skip Page Navigation
NASA JPL Caltech
NASA Logo - Jet Propulsion Laboratory + View the NASA Portal
+ Near-Earth Object (NEO) Program
Search JPL
JPL Home Earth Solar System Stars & Galaxies Technology
JPL Solar System Dynamics
BODIES ORBITS EPHEMERIDES TOOLS PHYSICAL DATA DISCOVERY FAQ SITE MAP
JPL Small-Body Database Browser
Search: [ help ]  
18101 Coustenis (2000 LF32)
Classification: Main-belt Asteroid          SPK-ID: 2018101
Ephemeris | Orbit Diagram | Orbital Elements | Physical Parameters | Discovery Circumstances | Close-Approach Data ]

[ show orbit diagram ]
Orbital Elements at Epoch 2457000.5 (2014-Dec-09.0) TDB
Reference: JPL 10 (heliocentric ecliptic J2000)
 Element Value Uncertainty (1-sigma)   Units 
e .1917890825023599 6.4061e-08  
a 2.283725072077798 1.2631e-08 AU
q 1.845731535816361 1.4261e-07 AU
i 5.096998698148053 6.7817e-06 deg
node 170.6682545171718 5.2181e-05 deg
peri 163.8061644607234 5.4567e-05 deg
M 39.96735416319874 1.3418e-05 deg
tp 2456860.551884476933
(2014-Jul-22.05188448)
4.6898e-05 JED
period 1260.561842111989
3.45
1.0458e-05
2.863e-08
d
yr
n .2855869406588126 2.3692e-09 deg/d
Q 2.721718608339234 1.5053e-08 AU
  Orbit Determination Parameters
   # obs. used (total)      634  
   data-arc span      8775 days (24.02 yr)  
   first obs. used      1990-10-16  
   last obs. used      2014-10-25  
   planetary ephem.      DE431  
   SB-pert. ephem.      SB431-BIG16  
   condition code      0  
   fit RMS      .52893  
   data source      ORB  
   producer      Otto Matic  
   solution date      2014-Nov-10 13:30:59  

Additional Information
 Earth MOID = .83718 AU 
 T_jup = 3.574 
[ show covariance matrix ]

Ephemeris | Orbit Diagram | Orbital Elements | Physical Parameters | Discovery Circumstances | Close-Approach Data ]

Physical Parameter Table
Parameter Symbol Value Units Sigma Reference Notes
absolute magnitude H 15.6 mag n/a MPO309296  

18101 Coustenis           Discovered 2000 June 5 by the Lowell Observatory Near-Earth Object Search at the Anderson Mesa Station.
Athena Coustenis (b. 1961), of the Laboratoire d´Etudes Spatiales et d´Instrumentation en Astrophysique at Paris Observatory, has studied Saturn VI (Titan) telescopically by analyzing Voyager spacecraft data. She is co-investigator of three Cassini/Huygens mission instruments.
NOTE: some special characters may not display properly (any characters within {} are an attempt to place the proper accent above a character)
Reference: 20050721/MPCPages.arcLast Updated: 2005-07-21

[ show close-approach data ]
Alternate Designations
 2000 LF32 = 1990 UX5 = 1996 JN14 = 1999 EE4 
Ephemeris | Orbit Diagram | Orbital Elements | Physical Parameters | Discovery Circumstances | Close-Approach Data ]
ABOUT SSD CREDITS/AWARDS PRIVACY/COPYRIGHT GLOSSARY LINKS
FirstGov 2014-Nov-26 13:56 UT
(server date/time)  
NASA Home Page
Site Manager:   Donald K. Yeomans
Webmaster  Alan B. Chamberlin